OPS 1948 1 11558U 79086A 21063.66330324 -.00000116 00000-0 00000-0 0 9998 2 11558 5.8773 355.2746 1269783 60.0802 153.2221 1.00244485 6860 TITAN 3C TRANSTAGE R/B 1 11560U 79086C 21063.06044153 -.00000042 00000-0 00000-0 0 9995 2 11560 5.9261 354.8728 1366931 109.1342 266.1359 0.99683874 6994